• In United Kingdom
  • List of Countries
  • For 7 days
  • Water Temperature
  • Satellite Maps
  • Weather Map
  • Weather Widgets
  • user-avatar
    Login

    Hourly Weather Kanye

    Today, 22 September, Saturday

    Time Temperature Precipitation Wind Pressure Humidity
    00:00 +21°C° 0 mm 3 mps 653 mmHg 37%
    01:00 +20°C° 0 mm 3 mps 652 mmHg 38%
    02:00 +20°C° 0 mm 3 mps 652 mmHg 39%
    03:00 +20°C° 0 mm 4 mps 652 mmHg 41%
    04:00 +19°C° 0 mm 4 mps 652 mmHg 43%
    05:00 +19°C° 0 mm 4 mps 652 mmHg 45%
    06:00 +19°C° 0 mm 5 mps 653 mmHg 45%
    07:00 +20°C° 0 mm 6 mps 653 mmHg 46%
    08:00 +21°C° 0 mm 7 mps 653 mmHg 46%
    09:00 +23°C° 0 mm 7 mps 654 mmHg 40%
    10:00 +27°C° 0 mm 8 mps 654 mmHg 34%
    11:00 +29°C° 0 mm 8 mps 655 mmHg 27%
    12:00 +30°C° 0 mm 7 mps 654 mmHg 23%
    13:00 +33°C° 0 mm 6 mps 654 mmHg 18%
    14:00 +34°C° 0 mm 6 mps 654 mmHg 14%
    15:00 +34°C° 0 mm 5 mps 653 mmHg 13%
    16:00 +34°C° 0 mm 5 mps 653 mmHg 13%
    17:00 +34°C° 0 mm 4 mps 653 mmHg 12%
    18:00 +32°C° 0 mm 4 mps 652 mmHg 13%
    19:00 +29°C° 0 mm 4 mps 652 mmHg 14%
    20:00 +27°C° 0 mm 4 mps 652 mmHg 15%
    21:00 +26°C° 0 mm 5 mps 652 mmHg 17%
    22:00 +26°C° 0 mm 5 mps 652 mmHg 18%
    23:00 +25°C° 0 mm 5 mps 653 mmHg 20%

    Tomorrow, 23 September, Sunday

    Time Temperature Precipitation Wind Pressure Humidity
    00:00 +23°C° 0 mm 5 mps 652 mmHg 23%
    01:00 +23°C° 0 mm 5 mps 652 mmHg 27%
    02:00 +22°C° 0 mm 5 mps 652 mmHg 30%
    03:00 +21°C° 0 mm 5 mps 652 mmHg 31%
    04:00 +21°C° 0 mm 5 mps 652 mmHg 32%
    05:00 +20°C° 0 mm 5 mps 652 mmHg 34%
    06:00 +21°C° 0 mm 6 mps 652 mmHg 33%
    07:00 +22°C° 0 mm 7 mps 653 mmHg 33%
    08:00 +22°C° 0 mm 8 mps 654 mmHg 33%
    09:00 +24°C° 0 mm 8 mps 654 mmHg 30%
    10:00 +27°C° 0 mm 8 mps 655 mmHg 27%
    11:00 +29°C° 0 mm 8 mps 655 mmHg 24%
    12:00 +32°C° 0 mm 7 mps 654 mmHg 21%
    13:00 +33°C° 0 mm 6 mps 654 mmHg 19%
    14:00 +34°C° 0 mm 5 mps 654 mmHg 17%
    15:00 +34°C° 0 mm 5 mps 653 mmHg 16%
    16:00 +34°C° 0 mm 4 mps 653 mmHg 16%
    17:00 +34°C° 0 mm 4 mps 652 mmHg 15%
    18:00 +32°C° 0 mm 4 mps 652 mmHg 18%
    19:00 +29°C° 0 mm 4 mps 652 mmHg 20%
    20:00 +27°C° 0 mm 5 mps 652 mmHg 23%
    21:00 +27°C° 0 mm 5 mps 652 mmHg 24%
    22:00 +26°C° 0 mm 5 mps 652 mmHg 25%
    23:00 +25°C° 0 mm 5 mps 653 mmHg 27%

    Day after tomorrow, 24 September, Monday

    Time Temperature Precipitation Wind Pressure Humidity
    00:00 +25°C° 0 mm 4 mps 653 mmHg 29%
    01:00 +24°C° 0 mm 3 mps 652 mmHg 31%
    02:00 +23°C° 0 mm 2 mps 652 mmHg 33%
    03:00 +22°C° 0 mm 3 mps 652 mmHg 34%
    04:00 +21°C° 0 mm 3 mps 652 mmHg 35%
    05:00 +21°C° 0 mm 4 mps 652 mmHg 36%
    06:00 +22°C° 0 mm 5 mps 652 mmHg 36%
    07:00 +22°C° 0 mm 6 mps 653 mmHg 35%
    08:00 +23°C° 0 mm 7 mps 654 mmHg 34%
    09:00 +26°C° 0 mm 7 mps 654 mmHg 30%
    10:00 +28°C° 0 mm 7 mps 654 mmHg 26%
    11:00 +30°C° 0 mm 7 mps 654 mmHg 22%
    12:00 +32°C° 0 mm 6 mps 654 mmHg 20%
    13:00 +33°C° 0 mm 6 mps 653 mmHg 17%
    14:00 +34°C° 0 mm 5 mps 653 mmHg 15%
    15:00 +34°C° 0 mm 4 mps 652 mmHg 15%
    16:00 +34°C° 0 mm 4 mps 652 mmHg 14%
    17:00 +34°C° 0 mm 3 mps 651 mmHg 14%
    18:00 +30°C° 0 mm 3 mps 651 mmHg 16%
    19:00 +28°C° 0 mm 3 mps 651 mmHg 18%
    20:00 +26°C° 0 mm 2 mps 651 mmHg 21%
    21:00 +26°C° 0 mm 2 mps 651 mmHg 22%
    22:00 +25°C° 0 mm 2 mps 651 mmHg 23%
    23:00 +24°C° 0 mm 2 mps 651 mmHg 24%

    25 September, Tuesday

    Time Temperature Precipitation Wind Pressure Humidity
    00:00 +24°C° 0 mm 2 mps 651 mmHg 25%
    01:00 +23°C° 0 mm 2 mps 651 mmHg 25%
    02:00 +21°C° 0 mm 2 mps 650 mmHg 26%
    03:00 +20°C° 0 mm 2 mps 650 mmHg 26%
    04:00 +19°C° 0 mm 2 mps 650 mmHg 27%
    05:00 +19°C° 0 mm 2 mps 650 mmHg 27%
    06:00 +20°C° 0 mm 3 mps 651 mmHg 26%
    07:00 +21°C° 0 mm 3 mps 652 mmHg 25%
    08:00 +23°C° 0 mm 4 mps 653 mmHg 24%
    09:00 +25°C° 0 mm 4 mps 653 mmHg 22%
    10:00 +27°C° 0 mm 4 mps 653 mmHg 21%
    11:00 +29°C° 0 mm 4 mps 653 mmHg 19%
    12:00 +30°C° 0 mm 4 mps 653 mmHg 17%
    13:00 +31°C° 0 mm 3 mps 652 mmHg 15%
    14:00 +34°C° 0 mm 3 mps 651 mmHg 13%
    15:00 +34°C° 0 mm 2 mps 651 mmHg 12%
    16:00 +34°C° 0 mm 2 mps 651 mmHg 12%
    17:00 +33°C° 0 mm 1 mps 651 mmHg 12%
    18:00 +31°C° 0 mm 1 mps 651 mmHg 13%
    19:00 +30°C° 0 mm 1 mps 651 mmHg 14%
    20:00 +28°C° 0 mm 1 mps 651 mmHg 16%
    21:00 +28°C° 0 mm 1 mps 651 mmHg 16%
    22:00 +27°C° 0 mm 1 mps 651 mmHg 17%
    23:00 +27°C° 0 mm 1 mps 651 mmHg 18%

    26 September, Wednesday

    Time Temperature Precipitation Wind Pressure Humidity
    00:00 +26°C° 0 mm 1 mps 651 mmHg 19%
    01:00 +25°C° 0 mm 1 mps 650 mmHg 20%
    02:00 +25°C° 0 mm 1 mps 650 mmHg 21%
    03:00 +24°C° 0 mm 2 mps 650 mmHg 22%
    04:00 +24°C° 0 mm 2 mps 651 mmHg 23%
    05:00 +23°C° 0 mm 2 mps 651 mmHg 24%
    06:00 +24°C° 0 mm 2 mps 652 mmHg 24%
    07:00 +25°C° 0 mm 2 mps 653 mmHg 24%
    08:00 +26°C° 0 mm 3 mps 654 mmHg 24%
    09:00 +28°C° 0 mm 3 mps 654 mmHg 22%
    10:00 +29°C° 0 mm 4 mps 654 mmHg 21%
    11:00 +30°C° 0 mm 4 mps 654 mmHg 19%
    12:00 +32°C° 0 mm 4 mps 654 mmHg 18%
    13:00 +33°C° 0 mm 3 mps 653 mmHg 17%
    14:00 +35°C° 0 mm 3 mps 653 mmHg 15%
    15:00 +34°C° 0 mm 2 mps 653 mmHg 15%
    16:00 +33°C° 0 mm 1 mps 652 mmHg 15%
    17:00 +33°C° 0 mm 1 mps 652 mmHg 14%
    18:00 +31°C° 0 mm 1 mps 652 mmHg 16%
    19:00 +30°C° 0 mm 1 mps 652 mmHg 19%
    20:00 +28°C° 0 mm 1 mps 652 mmHg 21%
    21:00 +27°C° 0 mm 2 mps 653 mmHg 22%
    22:00 +26°C° 0 mm 2 mps 653 mmHg 23%
    23:00 +26°C° 0 mm 3 mps 653 mmHg 24%

    27 September, Thursday

    Time Temperature Precipitation Wind Pressure Humidity
    00:00 +25°C° 0 mm 2 mps 653 mmHg 26%
    01:00 +24°C° 0 mm 2 mps 652 mmHg 28%
    02:00 +23°C° 0 mm 2 mps 652 mmHg 29%
    03:00 +23°C° 0 mm 2 mps 652 mmHg 30%
    04:00 +23°C° 0 mm 2 mps 652 mmHg 31%
    05:00 +21°C° 0 mm 3 mps 652 mmHg 32%
    06:00 +23°C° 0 mm 4 mps 653 mmHg 33%
    07:00 +24°C° 0 mm 6 mps 654 mmHg 34%
    08:00 +26°C° 0 mm 7 mps 655 mmHg 35%
    09:00 +27°C° 0 mm 8 mps 655 mmHg 35%
    10:00 +28°C° 0 mm 8 mps 655 mmHg 34%
    11:00 +29°C° 0 mm 8 mps 656 mmHg 33%
    12:00 +31°C° 0 mm 8 mps 655 mmHg 31%
    13:00 +32°C° 0 mm 7 mps 655 mmHg 29%
    14:00 +33°C° 0 mm 7 mps 655 mmHg 27%
    15:00 +33°C° 0 mm 7 mps 654 mmHg 27%
    16:00 +32°C° 0 mm 6 mps 654 mmHg 27%
    17:00 +32°C° 0 mm 6 mps 654 mmHg 27%
    18:00 +29°C° 0.1 mm 6 mps 654 mmHg 31%
    19:00 +28°C° 0.1 mm 5 mps 653 mmHg 35%
    20:00 +26°C° 0.1 mm 5 mps 653 mmHg 39%
    21:00 +25°C° 0.1 mm 4 mps 653 mmHg 42%
    22:00 +25°C° 0.1 mm 4 mps 653 mmHg 45%
    23:00 +24°C° 0.1 mm 3 mps 653 mmHg 49%
    Show more